Location: Monrovia
(34.7865°N, 86.7139°W)
Time: 00:50:27
(UTC+00:00)

Cosmos 2333 Rocket - Pass Details

Date: 14 July 2020
Orbit: 837 x 864 km, 70.8° (Epoch: 12 August)

Event Time Altitude Azimuth Distance (km) Brightness Sun altitude
Rises 01:45:49 0° 211° (SSW) 3,386 5.3 -8.7°
Reaches altitude 10° 01:48:18 10° 216° (SW) 2,459 4.6 -9.1°
Maximum altitude 01:53:50 56° 294° (WNW) 1,000 3.0 -10.1°
Drops below altitude 10° 01:59:28 10° 13° (NNE) 2,491 5.0 -11.0°
Sets 02:01:59 0° 17° (NNE) 3,434 5.6 -11.4°
